Location: Nairn
(57.5833°N, 3.8667°W)
Time: 19:12:06
(UTC+00:00)

Tiros 1 - Pass Details

Date: 29 November 2020
Orbit: 630 x 663 km, 48.4° (Epoch: 22 January)

Event Time Altitude Azimuth Distance (km) Brightness Sun altitude
Rises 15:11:15 0° 197° (SSW) 2,987 11.9 1.7°
Reaches altitude 10° 15:15:11 10° 165° (SSE) 2,076 10.3 1.4°
Maximum altitude 15:16:47 12° 146° (SE) 1,972 9.8 1.2°
Drops below altitude 10° 15:18:23 10° 126° (SE) 2,076 9.7 1.1°
Sets 15:22:18 0° 94° (E) 2,986 10.2 0.7°
